Location: Camp at the Woods
(43.2055°N, 93.0905°W)
Time: 01:54:34
(UTC+00:00)

Cosmos 2227 Rocket - Pass Details

Date: 24 May 2025
Orbit: 837 x 844 km, 71.0° (Epoch: 12 June)

Event Time Altitude Azimuth Distance (km) Brightness Sun altitude
Exits shadow 08:19:41 35° 225° (SW) 1,323 2.7 -19.3°
Maximum altitude 08:22:03 68° 297° (WNW) 905 2.3 -19.1°
Drops below altitude 10° 08:27:41 10° 20° (NNE) 2,464 5.8 -18.5°
Sets 08:30:10 0° 23° (NNE) 3,403 6.9 -18.2°
